Location: Unspecified
(0.0000°N, 0.0000°E)
Time: 03:42:17
(UTC+00:00)

N. Korean satellite - Pass Details

Date: 18 November 2017
Orbit: 461 x 513 km, 97.2° (Epoch: 12 December)

Event Time Altitude Azimuth Distance (km) Brightness Sun altitude
Rises 18:51:57 0° 187° (S) 2,485 10.6 -15.7°
Reaches altitude 10° 18:54:11 10° 200° (SSW) 1,606 9.7 -16.2°
Maximum altitude 18:57:09 27° 259° (W) 922 8.8 -16.9°
Drops below altitude 10° 19:00:06 10° 318° (NW) 1,603 9.4 -17.6°
Sets 19:02:20 0° 331° (NNW) 2,479 10.3 -18.1°
